Yellow Mule RAWS (NWS)

Elevation
9200ft
Aggregated by Synoptic Data
Date/Time Wind Direction Wind Speed knots Wind Gust knots RH % Accumulated Precip Inches Air Temp Fahrenheit
2024-03-01 07:04 WSW 13 20 91 0.28 16
2024-03-01 06:04 SSW 11 31 93 0.28 19
2024-03-01 05:04 S 15 29 92 0.28 21
2024-03-01 04:04 S 16 42 85 0.28 22
2024-03-01 03:04 SSE 22 42 78 0.28 24
2024-03-01 02:04 S 23 45 79 0.28 24
2024-03-01 01:04 S 20 50 83 0.28 24
2024-03-01 00:04 SSE 30 52 88 0.28 24
2024-02-29 23:04 SSE 27 48 90 0.28 24
2024-02-29 22:04 SSE 18 41 94 0.28 23
2024-02-29 21:04 SSE 17 30 95 0.28 22
2024-02-29 20:04 SSE 19 32 86 0.28 23
2024-02-29 19:04 SSE 20 34 85 0.28 23
2024-02-29 18:04 SSE 17 44 80 0.28 24
2024-02-29 17:04 S 22 43 78 0.28 25
2024-02-29 16:04 S 24 45 76 0.28 26
2024-02-29 15:04 S 19 37 75 0.28 27
2024-02-29 14:04 SSE 17 50 82 0.28 26
2024-02-29 13:04 SSE 21 37 78 0.28 27
2024-02-29 12:04 SSE 17 40 78 0.28 25
2024-02-29 11:04 SE 12 28 78 0.28 26
2024-02-29 10:04 SE 12 29 81 0.28 24
2024-02-29 09:04 SSE 12 23 88 0.28 22
2024-02-29 08:04 SSE 8 12 88 0.28 17
2024-02-29 07:04 SSE 7 12 91 0.28 15
2024-02-29 06:04 SE 8 23 92 0.28 15
2024-02-29 05:04 SSE 12 20 92 0.28 17
2024-02-29 04:04 SSE 10 19 92 0.28 16
2024-02-29 03:04 S 10 14 91 0.28 14
2024-02-29 02:04 SSE 8 12 91 0.28 14
2024-02-29 01:04 SSE 7 11 91 0.28 13
2024-02-29 00:04 SE 6 13 91 0.28 13
2024-02-28 23:04 SSE 10 14 90 0.28 13
2024-02-28 22:04 SSE 10 19 91 0.28 14
2024-02-28 21:04 S 12 18 90 0.28 12
2024-02-28 20:04 S 11 17 91 0.28 13
2024-02-28 19:04 S 9 16 92 0.28 12
2024-02-28 18:04 S 10 18 89 0.28 14
2024-02-28 17:04 SSE 13 23 87 0.28 16
2024-02-28 16:04 SSE 11 27 83 0.28 21
2024-02-28 15:04 SSE 14 22 84 0.28 19
2024-02-28 14:04 SSE 13 21 84 0.28 19
2024-02-28 13:04 SSE 13 22 83 0.28 18
2024-02-28 12:04 SE 9 18 82 0.28 18
2024-02-28 11:04 S 13 16 80 0.28 15
2024-02-28 10:04 S 8 13 81 0.28 10
2024-02-28 09:04 S 10 13 82 0.28 7
2024-02-28 08:04 S 12 16 84 0.28 4
2024-02-28 07:04 S 10 20 83 0.28 7